Regional Weather Roundup
Issued by NWS State College, PA

Home | Current Version | Previous Version | Graphics & Text | Print | Product List | Glossary Off
Versions: 1 2 3 4 5 6 7 8 9 10 11 12 13 14 15 16 17 18 19 20 21 22 23 24 25 26 27 28 29 30 31 32 33 34 35 36 37 38 39 40 41 42 43 44 45 46 47 48 49 50

000
ASUS41 KCTP 201503
RWRCTP

REGIONAL WEATHER ROUNDUP
NATIONAL WEATHER SERVICE STATE COLLEGE PA
1000 AM EST MON FEB 20 2017

Note: "fair" indicates few or no clouds below 12,000 feet with no
significant weather and/or obstructions to visibility.

* = STATION THAT DOES NOT REPORT PRECIPITATION /E.G. RAIN...SNOW...ETC/
    THUNDER OR FOG.

PAZ002>004-007>009-013>016-020>023-029>032-201600-
WESTERN PENNSYLVANIA

CITY           SKY/WX    TMP DP  RH WIND       PRES   REMARKS
ERIE           MOSUNNY   41  33  73 NE8       30.32R
MEADVILLE      MOSUNNY   43  30  60 E5        30.29R
FRANKLIN*      MOSUNNY   41  28  60 SE3       30.30R
NEW CASTLE     FAIR      43  34  70 N3        30.30R
BEAVER COUNTY  SUNNY     48  34  57 CALM      30.29R
BUTLER*        SUNNY     48  36  61 CALM      30.30R
PITTSBURGH INT FOG       42  42 100 CALM      30.30R VSB<1/4
PITTSBURGH     MOSUNNY   46  41  82 CALM      30.29R HAZE
INDIANA*       MOSUNNY   41  41 100 CALM      30.31S FOG
LATROBE        PTSUNNY   48  46  93 SW6       30.30R FOG
WASHINGTON CO* CLOUDY    45  43  93 CALM      30.31R
$$

PAZ004>006-010>012-017>019-024>028-033>037-041-042-045-046-049>053-201600-
CENTRAL PENNSYLVANIA

CITY           SKY/WX    TMP DP  RH WIND       PRES   REMARKS
BRADFORD       SUNNY     39  31  72 N10       30.25R
DUBOIS         SUNNY     43  29  57 NE8       30.25S
CLEARFIELD       N/A    N/A N/A N/A MISG      30.27R
JOHNSTOWN      SUNNY     45  36  70 NW8       30.24R
ALTOONA        SUNNY     48  32  53 NW8       30.26R
STATE COLLEGE  SUNNY     45  30  57 NW5       30.26F
WILLIAMSPORT   SUNNY     46  30  53 N10       30.27R
SELINSGROVE    SUNNY     48  33  56 NE8       30.27R
FT INDIANTOWN  SUNNY     50  30  46 VRB3      30.24S
CAPITAL CITY   SUNNY     51  29  42 VRB7      30.27R
HARRISBURG     PTSUNNY   51  32  48 N9        30.25R
YORK           SUNNY     53  32  44 N9        30.25R
$$

PAZ038>040-043-044-047-048-054-055-060>062-067>071-201600-
EASTERN PENNSYLVANIA

CITY           SKY/WX    TMP DP  RH WIND       PRES   REMARKS
SCRANTON       MOSUNNY   40  29  64 N15       30.24R
MOUNT POCONO   MOSUNNY   37  28  70 NW10G24   30.17R
ALLENTOWN      MOSUNNY   47  30  51 NW10      30.24R
QUAKERTOWN*    SUNNY     46  32  57 N7        30.25R
READING        SUNNY     49  33  54 N9        30.24R
LANCASTER      SUNNY     51  34  52 NW9       30.25R
COATESVILLE    SUNNY     48  32  53 N8G14     30.25R
POTTSTOWN      SUNNY     50  31  48 N12       30.25R
BLUE BELL      SUNNY     46  32  57 N9G17     30.23R
DOYLESTOWN     SUNNY     50  32  50 N12       30.22R
WILLOW GROVE   NOT AVBL
NORTH PHILA    SUNNY     52  32  46 NW12      30.24S
PHILADELPHIA   MOSUNNY   52  31  44 N12       30.24R
$$




USA.gov is the U.S. government's official web portal to all federal, state and local government web resources and services.